Location: B�aulencourt
(50.0796°N, 2.8795°E)
Time: 10:27:54
(UTC+00:00)

Daily predictions for brighter satellites

Satellite Brightness Start Highest point End
(mag) Time Altitude Azimuth Time Altitude Azimuth Time Altitude Azimuth
Cosmos 1805 Rocket 3.7 16:16:36 10° N 16:20:50 50° ENE 16:25:03 10° SSE
Cosmos 2278 3.9 16:15:26 10° NNW 16:21:00 49° NE 16:26:31 10° SE
Cosmos 1833 Rocket 2.8 16:16:05 10° SSW 16:21:40 71° ESE 16:27:18 10° NNE
Cosmos 1933 3.8 16:18:17 10° SSE 16:22:06 42° E 16:25:55 10° NNE
Cosmos 2333 Rocket 4.0 16:19:32 10° N 16:22:11 13° NNE 16:24:49 10° NE
MINOTAUR 4 R/B 4.4 16:20:09 10° N 16:23:41 66° WNW 16:27:11 10° SSW
Cosmos 1602 3.9 16:19:58 10° N 16:23:46 52° ENE 16:27:34 10° SSE
NOAA 11 4.2 16:19:19 10° SSE 16:24:44 87° ENE 16:30:13 10° NNW
USA 305 3.2 16:23:45 10° WNW 16:27:55 52° N 16:32:05 10° E
Cosmos 1842 Rocket 4.0 16:24:46 10° SSW 16:29:14 69° WNW 16:33:44 10° N
CZ-2C R/B 4.2 16:27:06 10° ENE 16:29:34 13° E 16:32:02 10° ESE
Cosmos 2219 Rocket 4.0 16:28:05 10° N 16:30:16 12° NNE 16:32:26 10° NE
SL-24 R/B - RUBIN 2 3.7 16:25:52 10° NW 16:30:27 80° SW 16:34:46 10° SE
Meteor 1-25 Rocket 4.2 16:24:57 10° N 16:30:34 82° ENE 16:36:12 10° SSE
Nadezhda 4 Rocket 4.3 16:25:28 10° NNW 16:31:48 76° W 16:38:07 10° S
CZ-4B R/B 2.7 16:29:46 10° SSE 16:33:39 66° ENE 16:37:22 10° N
Cosmos 1606 4.1 16:30:11 10° SW 16:33:43 38° WNW 16:37:19 10° N
Cosmos 1464 Rocket 4.5 16:27:40 10° SSW 16:34:01 69° WNW 16:40:24 10° N
Cosmos 1500 3.4 16:30:25 10° N 16:34:02 44° ENE 16:37:36 10° SSE
Cosmos 44 Rocket 3.5 16:30:16 10° NNW 16:35:07 50° NE 16:39:47 10° ESE
COSMOS 2406 3.3 16:35:33 10° SSW 16:41:17 77° ESE 16:47:02 10° NNE
Cosmos 468 Rocket 4.2 16:37:21 10° SSW 16:42:31 75° WNW 16:47:47 10° NNE
Cosmos 1428 Rocket 4.4 16:40:55 10° N 16:47:05 77° ENE 16:53:16 10° SSE
Cosmos 1092 Rocket 4.1 16:45:49 10° N 16:52:13 88° W 16:58:32 10° S
Cosmos 2298 Rocket 4.5 16:48:57 10° NNW 16:53:57 39° ENE 16:58:56 10° SE
CZ-4B R/B 3.7 16:49:49 10° SE 16:54:34 33° ENE 16:59:18 10° N
Meteor 2-21 4.4 16:49:42 10° N 16:55:49 79° E 17:01:52 10° SSE
USA 267 3.7 16:50:26 12° ENE 16:56:24 50° SE 17:02:43 10° SSW
CZ-2D R/B 3.7 16:53:09 10° SE 16:56:40 37° ENE 17:00:12 10° N
ATLAS CENTAUR R/B 2.9 16:48:14 10° SW 16:58:07 86° SSE 17:01:31 16° ENE
Cosmos 1939 Rocket 2.8 16:55:13 10° SSE 16:59:18 82° ENE 17:03:22 10° NNW
USA 306 3.0 16:56:05 10° WNW 17:00:19 61° NNE 17:03:50 14° E
Cosmos 1633 Rocket 3.3 16:56:43 10° N 17:00:58 47° ENE 17:05:13 10° SSE
COSMO-SKYMED 1 3.9 16:59:10 15° ENE 17:01:08 20° E 17:04:18 10° SE
Cosmos 1151 Rocket 3.4 16:57:53 10° SSE 17:01:59 42° E 17:06:07 10° NNE
Cosmos 1666 2.7 16:59:07 10° N 17:02:46 51° ENE 17:06:23 10° SSE
Cosmos 1782 2.7 17:00:03 10° S 17:04:02 80° E 17:08:01 10° NNE
Cosmos 2360 Rocket 3.2 16:59:54 10° NNW 17:04:38 26° NE 17:08:17 14° E
Radarsat 4.5 16:59:28 10° SSE 17:04:39 75° ENE 17:09:52 10° NNW
ISS -1.1 17:02:54 10° W 17:05:38 22° SW 17:08:20 10° SSE
SeaSat 1 4.0 17:03:49 10° NNE 17:08:08 31° NW 17:12:26 10° WSW
SL-08 R/B 3.8 17:04:11 10° N 17:08:48 59° WNW 17:13:20 10° SSW
Cosmos 1763 Rocket 4.4 17:04:05 10° SW 17:08:58 45° WNW 17:13:56 10° NNE
PAYLOAD B 4.3 17:03:54 10° SE 17:09:23 59° ENE 17:14:54 10° N
YAOGAN 1 4.2 17:11:21 16° NE 17:11:21 16° NE 17:13:14 10° NNE
Cosmos 1818 3.5 17:05:10 10° NW 17:10:42 84° NE 17:16:10 10° SE
ATLAS 5 CENTAUR R/B 2.5 17:09:04 10° NW 17:17:36 55° NNE 17:19:39 21° E
Cosmos 2279 Rocket 4.0 17:11:59 10° S 17:18:04 62° E 17:24:11 10° NNE
Cosmos 1536 4.4 17:14:55 10° NNE 17:16:30 17° NE 17:16:30 17° NE
Cosmos 2142 Rocket 4.5 17:12:55 10° S 17:19:00 66° E 17:25:13 10° NNE
Cosmos 841 Rocket 3.6 17:13:57 10° SSW 17:19:06 76° WNW 17:24:17 10° NNE
Cosmos 2266 Rocket 4.3 17:13:49 10° N 17:19:57 45° ENE 17:26:04 10° SE
ERBS 3.6 17:17:21 10° NW 17:20:01 24° N 17:20:46 22° NNE
USA 307 2.9 17:16:40 10° WNW 17:20:56 68° NNE 17:23:33 22° E
CZ-4C R/B 3.4 17:14:29 10° NW 17:21:36 69° SW 17:29:57 10° SSE
Lacrosse 5 rocket 1.6 17:20:09 10° WNW 17:24:01 64° SW 17:28:05 10° SE
NOSS 3-4 (A) 4.5 17:19:18 10° NW 17:25:12 34° NNE 17:28:52 22° ENE
NOSS 3-4 (C) 4.5 17:19:24 10° NW 17:25:18 33° NNE 17:28:56 22° ENE
SL-08 RB Rocket 4.4 17:21:57 10° SE 17:26:00 31° ENE 17:30:02 10° N
ATLAS 2AS CENTAUR R/B 3.9 17:21:03 10° NW 17:27:32 29° N 17:31:18 19° NE
Cosmos 2322 Rocket 2.4 17:22:12 10° NNW 17:27:45 49° NE 17:33:16 10° SE
Cosmos 1933 Rocket 4.1 17:24:01 10° N 17:28:02 35° ENE 17:32:00 10° SE
COSMOS 2428 4.2 17:24:21 10° N 17:28:12 18° NNE 17:28:43 18° NE
Cosmos 2208 Rocket 4.1 17:23:13 10° S 17:28:33 61° ESE 17:32:51 16° NNE
Cosmos 2150 Rocket 3.9 17:24:30 10° NNW 17:29:41 66° ENE 17:34:53 10° SE
Cosmos 1666 Rocket 3.8 17:26:06 10° NNW 17:30:33 75° W 17:34:55 10° S
Cosmos 1980 Rocket 3.5 17:25:31 10° NW 17:30:51 44° WSW 17:36:08 10° S
USA 234 3.3 17:24:53 10° SE 17:31:27 83° SSW 17:38:02 10° WNW
Cosmos 1328 Rocket 3.5 17:27:38 10° S 17:32:01 61° E 17:36:01 12° NNE
Cosmos 1470 Rocket 3.5 17:29:44 10° N 17:34:11 62° ENE 17:38:37 10° SSE
Cosmos 1544 3.2 17:30:48 10° N 17:34:18 45° ENE 17:37:47 10° SSE
Cosmos 1125 Rocket 3.4 17:30:40 10° NNW 17:35:55 68° ENE 17:41:10 10° SSE
X-37B 2.7 17:36:05 10° S 17:37:43 14° SSE 17:37:49 14° SSE
Cosmos 1812 2.9 17:34:00 10° SSW 17:37:50 72° WNW 17:41:43 10° N
PSLV R/B 4.0 17:35:03 10° S 17:38:44 68° WSW 17:42:31 10° NNW
H-2A R/B 1.9 17:34:24 10° SSE 17:39:31 89° WSW 17:44:32 10° NNW
Cosmos 1634 Rocket 4.5 17:34:18 10° SSW 17:40:35 64° WNW 17:46:54 10° N
Meteor 1-11 Rocket 3.8 17:35:41 10° N 17:41:15 57° ENE 17:46:54 10° SSE
Okean O Rocket 1.6 17:36:57 10° SSE 17:41:18 56° ENE 17:45:41 10° N
Meteor 2-8 Rocket 4.4 17:35:53 10° S 17:41:59 70° E 17:48:09 10° NNE
Meteor 1-10 Rocket 4.3 17:36:33 10° S 17:42:07 54° E 17:47:12 12° NNE
ATLAS CENTAUR R/B 3.8 17:40:46 10° NNW 17:43:05 13° N 17:44:13 13° NNE
GEOS 3 Rocket 4.2 17:41:55 30° ENE 17:43:32 37° NNE 17:48:15 10° NNW
USA 308 2.8 17:39:22 10° WNW 17:43:39 82° NNE 17:45:21 35° ESE
USA 32 4.5 17:39:31 10° SSE 17:44:17 37° E 17:46:22 27° NE
SL-16 R/B 2.1 17:42:43 10° NNW 17:48:26 83° ENE 17:54:07 10° SSE
Cosmos 2237 Rocket 4.1 17:46:56 10° N 17:49:04 13° NNE 17:49:04 13° NNE
SKYMED 2 3.6 17:47:47 32° NE 17:49:33 54° E 17:53:48 10° S
ARGOS 3.0 17:46:01 10° SSE 17:51:24 73° ENE 17:56:48 10° NNW
Cosmos 2082 Rocket 2.8 17:46:48 10° SW 17:52:23 56° NW 17:56:57 15° NNE
CZ-4 R/B 3.8 17:58:56 11° N 17:58:56 11° N 17:59:04 10° N
deb Chang Zheng 4 3.5 17:52:32 10° SSE 17:56:52 89° ENE 18:01:12 10° NNW
COSMOS 2455 3.6 17:54:57 10° WSW 18:00:47 49° NW 18:04:54 19° NNE
Cosmos 1833 Rocket 4.4 18:01:23 10° W 18:06:08 27° NW 18:10:35 11° NNE
Feng Yun 1-1 Rocket 4.3 18:00:29 10° SSE 18:06:18 66° ENE 18:12:05 10° N
USA 305 3.0 18:03:42 10° WNW 18:07:57 72° SSW 18:08:52 51° SE
Cosmos 2333 Rocket 2.8 18:02:54 10° NNW 18:08:05 37° NE 18:08:05 37° NE
Cosmos 1356 Rocket 3.4 18:04:39 10° NNW 18:08:53 86° WSW 18:13:08 10° S
CZ-2C R/B 2.4 18:06:50 19° NNE 18:10:41 85° ESE 18:15:52 10° SSW
SL-16 R/B 4.4 18:10:54 10° N 18:11:02 10° NNE 18:11:02 10° NNE
Cosmos 2219 Rocket 3.1 18:10:54 10° NNW 18:15:04 32° NNE 18:15:04 32° NNE
Cosmos 1655 Rocket 4.2 18:10:19 10° NNW 18:16:43 75° W 18:23:03 10° S
Aureole 3 Rocket 3.6 18:13:43 10° S 18:18:23 66° E 18:25:04 10° NNE
Cosmos 1515 Rocket 3.5 18:14:42 10° SSW 18:19:09 82° W 18:20:26 46° N
Cosmos 921 Rocket 3.3 18:17:32 10° SSW 18:21:42 61° WNW 18:22:47 45° N
Spot 2 4.3 18:23:28 30° SSE 18:26:01 77° ENE 18:31:06 10° NNW
CZ-4B R/B 4.2 18:29:55 10° S 18:35:02 44° W 18:40:07 10° NNW
Cosmos 371 Rocket 3.9 18:30:22 10° NNW 18:33:50 46° N 18:33:50 46° N
Cosmos 2333 4.4 18:30:31 10° NNW 18:35:32 55° NNE 18:35:32 55° NNE
COSMO-SKYMED 1 3.3 18:36:23 39° NNW 18:37:36 52° WNW 18:41:49 10° SW
USA 267 3.3 18:37:47 49° NE 18:39:39 72° NNW 18:46:09 10° WSW
USA 306 3.7 18:36:04 10° WNW 18:39:52 47° SW 18:39:52 47° SW
Landsat 5 4.5 18:41:36 39° SW 18:41:36 39° SW 18:44:11 10° SSW
Meteor 1-27 Rocket 3.7 18:39:37 10° SSW 18:45:08 79° WNW 18:46:30 53° N
YAOGAN 1 4.3 18:48:30 25° NNW 18:48:30 25° NNW 18:50:21 10° NNW
Cosmos 2360 Rocket 2.2 18:43:34 10° NNW 18:49:15 76° WSW 18:50:07 62° S
Lacrosse 5 rocket 4.3 19:00:47 10° W 19:02:31 12° SW 19:04:15 10° SSW
Cosmos 2322 Rocket 3.7 19:06:33 10° NW 19:11:39 34° WSW 19:16:43 10° S
COSMOS 2428 4.1 19:07:57 10° NNW 19:10:45 29° NNW 19:10:45 29° NNW
NOSS 3-4 (A) 3.8 19:10:12 10° NW 19:16:20 72° N 19:16:20 72° N
NOSS 3-4 (C) 3.8 19:10:18 10° NW 19:16:24 71° N 19:16:24 71° N
Okean O Rocket 4.2 19:14:47 10° SW 19:17:59 19° W 19:21:13 10° NW
ATLAS 2AS CENTAUR R/B 3.5 19:13:05 10° NW 19:18:44 42° N 19:18:44 42° N
Cosmos 1867 4.5 19:15:18 10° SW 19:19:10 45° WSW 19:19:10 45° WSW
ATLAS CENTAUR R/B 4.4 19:20:12 10° NNW 19:20:20 11° NNW 19:20:20 11° NNW
Cosmos 2237 Rocket 4.5 19:29:56 10° NNW 19:30:53 15° NNW 19:30:53 15° NNW
Cosmos 2082 Rocket 4.4 19:34:16 10° WNW 19:37:46 16° NNW 19:38:48 16° NNW
Cosmos 2333 Rocket 3.9 19:47:12 10° NW 19:50:07 29° NW 19:50:07 29° NW
Cosmos 2219 Rocket 4.2 19:54:46 10° NW 19:56:49 22° NW 19:56:49 22° NW
